Location: Klein M�hlingen
(51.9472°N, 11.7453°E)
Time: 11:10:49
(UTC+00:00)

ATLAS 5 CENTAUR R/B - Pass Details

Date: 09 April 2020
Orbit: 543 x 1116 km, 63.4° (Epoch: 01 May)

Event Time Altitude Azimuth Distance (km) Brightness Sun altitude
Rises 23:31:34 0° 303° (WNW) 3,024 5.4 -29.9°
Reaches altitude 10° 23:34:07 10° 316° (NW) 2,196 4.8 -29.9°
Maximum altitude 23:38:20 26° 13° (NNE) 1,522 4.1 -29.8°
Drops below altitude 10° 23:43:06 10° 69° (ENE) 2,516 5.0 -29.7°
Sets 23:46:14 0° 81° (E) 3,564 5.7 -29.6°
